Location: Unspecified
(43.4354°N, 0.0000°E)
Time: 04:56:20
(UTC+00:00)

Tiros 1 despin weight - Pass Details

Date: 02 July 2019
Orbit: 594 x 642 km, 48.2° (Epoch: 20 July)

Event Time Altitude Azimuth Distance (km) Brightness Sun altitude
Rises 00:48:12 0° 294° (WNW) 2,851 ? -22.7°
Reaches altitude 10° 00:50:31 10° 291° (WNW) 1,940 ? -22.6°
Enters shadow 00:53:58 49° 266° (W) 768 ? -22.5°
